Hourly Weather Amman

Today, 1 October, Thursday

Time Temperature Precipitation Wind Pressure Humidity
00:00 +21°C° 0 mm 2 mps 688 mmHg 53%
01:00 +21°C° 0 mm 1 mps 688 mmHg 53%
02:00 +21°C° 0 mm 1 mps 688 mmHg 51%
03:00 +20°C° 0 mm 2 mps 688 mmHg 54%
04:00 +19°C° 0 mm 2 mps 688 mmHg 57%
05:00 +19°C° 0 mm 2 mps 688 mmHg 59%
06:00 +22°C° 0 mm 1 mps 689 mmHg 55%
07:00 +24°C° 0 mm 1 mps 689 mmHg 51%
08:00 +26°C° 0 mm 1 mps 690 mmHg 50%
09:00 +27°C° 0 mm 2 mps 690 mmHg 43%
10:00 +29°C° 0 mm 3 mps 690 mmHg 36%
11:00 +31°C° 0 mm 3 mps 690 mmHg 30%
12:00 +32°C° 0 mm 4 mps 690 mmHg 28%
13:00 +33°C° 0 mm 4 mps 690 mmHg 27%
14:00 +34°C° 0 mm 5 mps 689 mmHg 25%
15:00 +32°C° 0 mm 5 mps 689 mmHg 32%
16:00 +30°C° 0 mm 5 mps 689 mmHg 40%
17:00 +28°C° 0 mm 5 mps 689 mmHg 47%
18:00 +26°C° 0 mm 4 mps 689 mmHg 56%
19:00 +22°C° 0 mm 4 mps 689 mmHg 66%
20:00 +20°C° 0 mm 3 mps 689 mmHg 76%
21:00 +19°C° 0 mm 2 mps 689 mmHg 77%
22:00 +19°C° 0 mm 1 mps 689 mmHg 78%
23:00 +16°C° 0 mm 0 mps 689 mmHg 79%

Tomorrow, 2 October, Friday

Time Temperature Precipitation Wind Pressure Humidity
00:00 +18°C° 0 mm 1 mps 689 mmHg 75%
01:00 +18°C° 0 mm 1 mps 689 mmHg 72%
02:00 +16°C° 0 mm 1 mps 689 mmHg 68%
03:00 +16°C° 0 mm 1 mps 689 mmHg 69%
04:00 +16°C° 0 mm 1 mps 689 mmHg 69%
05:00 +16°C° 0 mm 1 mps 689 mmHg 70%
06:00 +19°C° 0 mm 1 mps 690 mmHg 62%
07:00 +21°C° 0 mm 1 mps 690 mmHg 53%
08:00 +23°C° 0 mm 1 mps 691 mmHg 45%
09:00 +25°C° 0 mm 2 mps 691 mmHg 38%
10:00 +27°C° 0 mm 2 mps 691 mmHg 32%
11:00 +28°C° 0 mm 3 mps 692 mmHg 26%
12:00 +29°C° 0 mm 3 mps 692 mmHg 25%
13:00 +30°C° 0 mm 4 mps 691 mmHg 23%
14:00 +30°C° 0 mm 4 mps 691 mmHg 21%
15:00 +29°C° 0 mm 4 mps 691 mmHg 27%
16:00 +28°C° 0 mm 4 mps 691 mmHg 33%
17:00 +26°C° 0 mm 4 mps 690 mmHg 39%
18:00 +24°C° 0 mm 3 mps 691 mmHg 49%
19:00 +21°C° 0 mm 3 mps 691 mmHg 60%
20:00 +19°C° 0 mm 2 mps 691 mmHg 70%
21:00 +18°C° 0 mm 2 mps 691 mmHg 72%
22:00 +18°C° 0 mm 1 mps 691 mmHg 74%
23:00 +16°C° 0 mm 1 mps 690 mmHg 77%

Day after tomorrow, 3 October, Saturday

Time Temperature Precipitation Wind Pressure Humidity
00:00 +16°C° 0 mm 1 mps 690 mmHg 78%
01:00 +15°C° 0 mm 1 mps 690 mmHg 79%
02:00 +13°C° 0 mm 0 mps 690 mmHg 80%
03:00 +13°C° 0 mm 0 mps 690 mmHg 80%
04:00 +12°C° 0 mm 0 mps 690 mmHg 80%
05:00 +12°C° 0 mm 0 mps 689 mmHg 80%
06:00 +15°C° 0 mm 1 mps 690 mmHg 69%
07:00 +19°C° 0 mm 1 mps 691 mmHg 58%
08:00 +21°C° 0 mm 2 mps 692 mmHg 47%
09:00 +24°C° 0 mm 2 mps 692 mmHg 42%
10:00 +26°C° 0 mm 2 mps 692 mmHg 36%
11:00 +27°C° 0 mm 3 mps 692 mmHg 30%
12:00 +28°C° 0 mm 3 mps 692 mmHg 28%
13:00 +29°C° 0 mm 4 mps 692 mmHg 26%
14:00 +30°C° 0 mm 4 mps 692 mmHg 23%
15:00 +28°C° 0 mm 5 mps 691 mmHg 33%
16:00 +26°C° 0 mm 5 mps 691 mmHg 42%
17:00 +23°C° 0 mm 5 mps 691 mmHg 52%
18:00 +21°C° 0 mm 4 mps 691 mmHg 61%
19:00 +19°C° 0 mm 3 mps 691 mmHg 71%
20:00 +17°C° 0 mm 2 mps 691 mmHg 80%
21:00 +17°C° 0 mm 2 mps 690 mmHg 80%
22:00 +16°C° 0 mm 2 mps 690 mmHg 80%
23:00 +15°C° 0 mm 2 mps 690 mmHg 80%

4 October, Sunday

Time Temperature Precipitation Wind Pressure Humidity
00:00 +15°C° 0 mm 2 mps 690 mmHg 82%
01:00 +14°C° 0 mm 1 mps 690 mmHg 85%
02:00 +14°C° 0 mm 1 mps 690 mmHg 87%
03:00 +14°C° 0 mm 1 mps 690 mmHg 89%
04:00 +13°C° 0 mm 1 mps 690 mmHg 90%
05:00 +13°C° 0 mm 1 mps 690 mmHg 92%
06:00 +15°C° 0 mm 1 mps 690 mmHg 83%
07:00 +17°C° 0 mm 2 mps 691 mmHg 75%
08:00 +20°C° 0 mm 2 mps 692 mmHg 67%
09:00 +22°C° 0 mm 3 mps 692 mmHg 58%
10:00 +24°C° 0 mm 3 mps 692 mmHg 50%
11:00 +26°C° 0 mm 3 mps 692 mmHg 41%
12:00 +27°C° 0 mm 4 mps 692 mmHg 37%
13:00 +28°C° 0 mm 4 mps 691 mmHg 33%
14:00 +29°C° 0 mm 5 mps 691 mmHg 29%
15:00 +27°C° 0 mm 5 mps 691 mmHg 37%
16:00 +26°C° 0 mm 5 mps 691 mmHg 45%
17:00 +23°C° 0 mm 5 mps 690 mmHg 52%
18:00 +21°C° 0 mm 4 mps 690 mmHg 62%
19:00 +19°C° 0 mm 3 mps 690 mmHg 71%
20:00 +17°C° 0 mm 2 mps 690 mmHg 81%
21:00 +17°C° 0 mm 2 mps 690 mmHg 83%
22:00 +16°C° 0 mm 2 mps 690 mmHg 85%
23:00 +15°C° 0 mm 1 mps 690 mmHg 87%

5 October, Monday

Time Temperature Precipitation Wind Pressure Humidity
00:00 +15°C° 0 mm 1 mps 690 mmHg 88%
01:00 +14°C° 0 mm 1 mps 689 mmHg 90%
02:00 +14°C° 0 mm 1 mps 689 mmHg 91%
03:00 +14°C° 0 mm 1 mps 689 mmHg 91%
04:00 +13°C° 0 mm 1 mps 689 mmHg 92%
05:00 +12°C° 0 mm 0 mps 689 mmHg 92%
06:00 +16°C° 0 mm 1 mps 690 mmHg 83%
07:00 +19°C° 0 mm 1 mps 691 mmHg 73%
08:00 +22°C° 0 mm 1 mps 691 mmHg 64%
09:00 +24°C° 0 mm 1 mps 691 mmHg 54%
10:00 +26°C° 0 mm 1 mps 691 mmHg 45%
11:00 +28°C° 0 mm 1 mps 692 mmHg 35%
12:00 +29°C° 0 mm 2 mps 691 mmHg 32%
13:00 +29°C° 0 mm 2 mps 691 mmHg 29%
14:00 +30°C° 0 mm 3 mps 690 mmHg 26%
15:00 +29°C° 0 mm 3 mps 690 mmHg 31%
16:00 +27°C° 0 mm 4 mps 690 mmHg 35%
17:00 +26°C° 0 mm 4 mps 689 mmHg 40%
18:00 +24°C° 0 mm 3 mps 689 mmHg 52%
19:00 +21°C° 0 mm 3 mps 689 mmHg 63%
20:00 +19°C° 0 mm 2 mps 689 mmHg 75%
21:00 +19°C° 0 mm 1 mps 689 mmHg 76%
22:00 +18°C° 0 mm 1 mps 689 mmHg 76%
23:00 +16°C° 0 mm 1 mps 688 mmHg 77%

6 October, Tuesday

Time Temperature Precipitation Wind Pressure Humidity
00:00 +16°C° 0 mm 1 mps 688 mmHg 77%
01:00 +15°C° 0 mm 1 mps 688 mmHg 76%
02:00 +15°C° 0 mm 1 mps 688 mmHg 76%
03:00 +15°C° 0 mm 1 mps 688 mmHg 77%
04:00 +13°C° 0 mm 0 mps 688 mmHg 78%
05:00 +12°C° 0 mm 0 mps 688 mmHg 79%
06:00 +15°C° 0 mm 0 mps 689 mmHg 68%
07:00 +20°C° 0 mm 1 mps 689 mmHg 56%
08:00 +23°C° 0 mm 1 mps 690 mmHg 45%
09:00 +25°C° 0 mm 1 mps 690 mmHg 39%
10:00 +27°C° 0 mm 2 mps 690 mmHg 33%
11:00 +29°C° 0 mm 2 mps 690 mmHg 27%
12:00 +29°C° 0 mm 3 mps 690 mmHg 23%
13:00 +30°C° 0 mm 4 mps 689 mmHg 20%
14:00 +32°C° 0 mm 4 mps 689 mmHg 17%
15:00 +29°C° 0 mm 4 mps 689 mmHg 24%
16:00 +27°C° 0 mm 4 mps 688 mmHg 30%
17:00 +26°C° 0 mm 4 mps 688 mmHg 37%
18:00 +22°C° 0 mm 3 mps 688 mmHg 45%
19:00 +20°C° 0 mm 3 mps 688 mmHg 54%
20:00 +18°C° 0 mm 2 mps 688 mmHg 62%
21:00 +17°C° 0 mm 2 mps 688 mmHg 61%
22:00 +17°C° 0 mm 2 mps 688 mmHg 60%
23:00 +16°C° 0 mm 1 mps 688 mmHg 59%
Show more